Phoenix Deer Valley, AZ

2:06 AM MST on October 17, 2019 (GMT -0700)
Phoenix-Deer Valley Municipal

Weather History for KDVT - September, 2019

Change the Weather History Date:

Saturday, September 21, 2019

  Actual Average Record
Temperature  
Mean Temperature 78 °F -  
Max Temperature 90 °F 94 °F 104 °F (2001)
Min Temperature 66 °F 72 °F 59 °F (2004)
Cooling Degree Days 13    
Growing Degree Days 28 (Base 50)    
Moisture  
Dew Point 31 °F    
Average Humidity 18    
Maximum Humidity 28    
Minimum Humidity 10    
Precipitation  
Precipitation 0.00 in - - ()
Sea Level Pressure  
Sea Level Pressure 29.81 in    
Wind  
Wind Speed 5 mph ()    
Max Wind Speed 12 mph    
Max Gust Speed -    
Visibility 10.0 miles    
Events      
Averages and records for this station are not official NWS values.
T = Trace of Precipitation, MM = Missing Value Source: Averaged Metar Reports

Daily Weather History Graph

Daily Weather History Graph

Search for Another Location

Airport or City:

Astronomy

Sep. 21, 2019 Rise Set
Actual Time 6:15 AM MST 6:26 PM MST
Civil Twilight 5:50 AM MST 6:51 PM MST
Nautical Twilight 5:21 AM MST 7:20 PM MST
Astronomical Twilight 4:52 AM MST 7:49 PM MST
Moon 11:26 PM MST (9/21) 1:07 PM MST (9/21)
Length of Visible Light 13h 00m
Length of Day
12h 10m
Waning Gibbous, 53% of the Moon is Illuminated
Sep 21
Waning Gibbous
Sep 21
Last Quarter
Sep 28
New
Oct 5
First Quarter
Oct 13
Full

Hourly Weather History & Observations

Time (MST) Temp. Dew Point Humidity Pressure Visibility Wind Dir Wind Speed Gust Speed Precip Events Conditions
12:53 AM 71.1 °F 34.0 °F 26% 29.77 in 10.0 mi East 8.1 mph - N/A   Clear
1:53 AM 66.9 °F 33.1 °F 28% 29.79 in 10.0 mi Calm Calm - N/A   Clear
2:53 AM 69.1 °F 32.0 °F 25% 29.79 in 10.0 mi East 6.9 mph - N/A   Clear
3:53 AM 70.0 °F 34.0 °F 27% 29.79 in 10.0 mi East 3.5 mph - N/A   Clear
4:53 AM 71.1 °F 34.0 °F 26% 29.81 in 10.0 mi East 5.8 mph - N/A   Clear
5:53 AM 68.0 °F 33.1 °F 27% 29.83 in 10.0 mi East 6.9 mph - N/A   Clear
6:53 AM 72.0 °F 34.0 °F 25% 29.83 in 10.0 mi East 5.8 mph - N/A   Clear
7:53 AM 73.9 °F 35.1 °F 24% 29.85 in 10.0 mi East 6.9 mph - N/A   Clear
8:53 AM 79.0 °F 42.1 °F 27% 29.86 in 10.0 mi SE 9.2 mph - N/A   Clear
9:53 AM 81.0 °F 34.0 °F 18% 29.87 in 10.0 mi North - - N/A   Clear
10:53 AM 82.9 °F 34.0 °F 17% 29.87 in 10.0 mi Variable 3.5 mph - N/A   Clear
11:53 AM 87.1 °F 34.0 °F 15% 29.85 in 10.0 mi SW 6.9 mph - N/A   Clear
12:53 PM 87.1 °F 33.1 °F 15% 29.83 in 10.0 mi SW 6.9 mph - N/A   Clear
1:53 PM 89.1 °F 28.0 °F 11% 29.81 in 10.0 mi SSW 4.6 mph - N/A   Clear
2:53 PM 89.1 °F 26.1 °F 10% 29.78 in 10.0 mi SW 5.8 mph - N/A   Clear
3:53 PM 90.0 °F 26.1 °F 10% 29.77 in 10.0 mi South 11.5 mph - N/A   Clear
4:53 PM 89.1 °F 25.0 °F 10% 29.77 in 10.0 mi SSW 10.4 mph - N/A   Clear
5:53 PM 88.0 °F 26.1 °F 11% 29.78 in 10.0 mi SW 6.9 mph - N/A   Clear
6:53 PM 86.0 °F 26.1 °F 11% 29.78 in 10.0 mi Calm Calm - N/A   Clear
7:53 PM 81.0 °F 26.1 °F 13% 29.80 in 10.0 mi Calm Calm - N/A   Clear
8:53 PM 77.0 °F 26.1 °F 15% 29.81 in 10.0 mi Calm Calm - N/A   Clear
9:53 PM 75.9 °F 27.0 °F 16% 29.82 in 10.0 mi NNE 4.6 mph - N/A   Clear
10:53 PM 77.0 °F 27.0 °F 16% 29.83 in 10.0 mi ENE 4.6 mph - N/A   Clear
11:53 PM 75.0 °F 27.0 °F 17% 29.82 in 10.0 mi NE 6.9 mph - N/A   Clear